TimeEDT,TemperatureF,Dew PointF,Humidity,Sea Level PressureIn,VisibilityMPH,Wind Direction,Wind SpeedMPH,Gust SpeedMPH,PrecipitationIn,Events,Conditions,WindDirDegrees,DateUTC
12:14 AM,67.5,65.1,92,29.90,10.0,Calm,Calm,-,N/A,,Scattered Clouds,0,2013-06-12 04:14:00
12:34 AM,68.0,64.9,90,29.89,10.0,Calm,Calm,-,N/A,,Scattered Clouds,0,2013-06-12 04:34:00
12:54 AM,67.3,64.8,92,29.87,10.0,Calm,Calm,-,N/A,,Clear,0,2013-06-12 04:54:00
1:14 AM,67.1,64.2,90,29.88,10.0,Calm,Calm,-,N/A,,Clear,0,2013-06-12 05:14:00
1:34 AM,66.6,63.7,90,29.87,10.0,Calm,Calm,-,N/A,,Clear,0,2013-06-12 05:34:00
1:54 AM,66.2,64.2,93,29.87,10.0,Calm,Calm,-,N/A,,Clear,0,2013-06-12 05:54:00
2:14 AM,65.5,64.0,95,29.88,10.0,Calm,Calm,-,N/A,,Scattered Clouds,0,2013-06-12 06:14:00
2:34 AM,65.5,64.2,96,29.87,10.0,Calm,Calm,-,N/A,,Scattered Clouds,0,2013-06-12 06:34:00
2:54 AM,65.5,64.2,96,29.87,10.0,Calm,Calm,-,N/A,,Clear,0,2013-06-12 06:54:00
3:14 AM,64.6,63.5,96,29.87,7.0,Calm,Calm,-,N/A,,Clear,0,2013-06-12 07:14:00
3:34 AM,65.1,64.2,97,29.89,10.0,Calm,Calm,-,N/A,,Clear,0,2013-06-12 07:34:00
3:54 AM,64.9,63.9,96,29.89,7.0,Calm,Calm,-,N/A,,Clear,0,2013-06-12 07:54:00
4:14 AM,65.3,64.4,97,29.91,7.0,Calm,Calm,-,N/A,,Scattered Clouds,0,2013-06-12 08:14:00
4:34 AM,65.1,64.4,98,29.90,7.0,Calm,Calm,-,N/A,Rain,Light Rain,0,2013-06-12 08:34:00
4:54 AM,65.3,64.8,98,29.90,7.0,Calm,Calm,-,N/A,,Clear,0,2013-06-12 08:54:00
5:14 AM,65.5,64.9,98,29.88,7.0,Calm,Calm,-,N/A,Rain,Light Rain,0,2013-06-12 09:14:00
5:34 AM,65.3,64.8,98,29.87,5.0,ESE,5.8,-,N/A,,Clear,120,2013-06-12 09:34:00
5:54 AM,65.7,64.9,98,29.87,7.0,Calm,Calm,-,N/A,,Clear,0,2013-06-12 09:54:00
6:14 AM,65.7,64.8,97,29.91,5.0,Calm,Calm,-,N/A,,Clear,0,2013-06-12 10:14:00
6:34 AM,65.7,64.9,98,29.89,4.0,NE,4.6,-,N/A,,Clear,50,2013-06-12 10:34:00
6:54 AM,66.2,65.3,97,29.90,4.0,North,3.5,-,N/A,,Clear,10,2013-06-12 10:54:00
7:14 AM,66.6,65.3,96,29.91,4.0,Calm,Calm,-,N/A,,Clear,0,2013-06-12 11:14:00
7:34 AM,66.6,65.3,96,29.90,4.0,Calm,Calm,-,N/A,,Clear,0,2013-06-12 11:34:00
7:54 AM,66.7,65.5,96,29.90,4.0,Calm,Calm,-,N/A,,Clear,0,2013-06-12 11:54:00
8:14 AM,67.5,66.2,96,29.90,5.0,Calm,Calm,-,N/A,,Clear,0,2013-06-12 12:14:00
8:34 AM,67.8,66.0,94,29.89,5.0,Calm,Calm,-,N/A,,Clear,0,2013-06-12 12:34:00
8:54 AM,68.4,66.2,93,29.89,7.0,East,4.6,-,N/A,,Clear,90,2013-06-12 12:54:00
9:14 AM,68.5,66.0,92,29.90,7.0,Calm,Calm,-,N/A,,Clear,0,2013-06-12 13:14:00
9:34 AM,69.1,66.4,91,29.91,7.0,Calm,Calm,-,N/A,,Clear,0,2013-06-12 13:34:00
9:54 AM,69.1,66.6,92,29.90,7.0,South,3.5,-,N/A,,Scattered Clouds,170,2013-06-12 13:54:00
10:14 AM,69.6,67.3,92,29.90,7.0,South,3.5,-,N/A,,Scattered Clouds,180,2013-06-12 14:14:00
10:34 AM,70.5,67.6,91,29.92,7.0,Calm,Calm,-,N/A,,Clear,0,2013-06-12 14:34:00
10:54 AM,72.5,68.9,88,29.93,7.0,NW,5.8,-,N/A,,Clear,310,2013-06-12 14:54:00
11:14 AM,73.9,68.7,84,29.92,7.0,Calm,Calm,-,N/A,,Clear,0,2013-06-12 15:14:00
11:34 AM,75.0,68.9,81,29.90,7.0,East,4.6,-,N/A,,Clear,90,2013-06-12 15:34:00
11:54 AM,76.8,69.6,78,29.90,7.0,SE,5.8,-,N/A,,Clear,140,2013-06-12 15:54:00
12:14 PM,77.7,69.4,76,29.84,10.0,SE,11.5,-,N/A,,Clear,130,2013-06-12 16:14:00
12:34 PM,77.7,68.9,74,29.87,10.0,SW,5.8,-,N/A,,Clear,230,2013-06-12 16:34:00
12:54 PM,78.3,69.8,75,29.86,10.0,NNW,5.8,-,N/A,,Clear,330,2013-06-12 16:54:00
1:14 PM,79.3,69.3,71,29.84,10.0,SE,5.8,-,N/A,,Clear,140,2013-06-12 17:14:00
1:34 PM,79.7,70.9,74,29.83,10.0,South,8.1,-,N/A,,Clear,170,2013-06-12 17:34:00
1:54 PM,81.0,70.9,71,29.83,10.0,South,9.2,16.1,N/A,,Clear,180,2013-06-12 17:54:00
2:14 PM,81.0,70.7,71,29.81,10.0,ESE,5.8,-,N/A,,Clear,120,2013-06-12 18:14:00
2:34 PM,81.1,70.7,70,29.80,10.0,ESE,9.2,-,N/A,,Clear,110,2013-06-12 18:34:00
2:54 PM,80.8,70.7,71,29.80,10.0,SSE,6.9,-,N/A,,Clear,150,2013-06-12 18:54:00
3:14 PM,81.3,70.9,70,29.78,10.0,SSE,4.6,-,N/A,,Clear,160,2013-06-12 19:14:00
3:34 PM,80.8,71.2,73,29.79,10.0,Calm,Calm,-,N/A,,Clear,0,2013-06-12 19:34:00
3:54 PM,80.8,71.1,72,29.82,10.0,Calm,Calm,-,N/A,,Scattered Clouds,0,2013-06-12 19:54:00
4:14 PM,80.6,71.4,73,29.82,10.0,Calm,Calm,-,N/A,,Overcast,0,2013-06-12 20:14:00
4:34 PM,82.9,72.5,71,29.82,10.0,WSW,4.6,-,N/A,,Mostly Cloudy,240,2013-06-12 20:34:00
4:54 PM,81.9,72.5,73,29.81,10.0,Calm,Calm,-,N/A,,Mostly Cloudy,0,2013-06-12 20:54:00
5:14 PM,82.9,72.7,71,29.80,10.0,West,3.5,-,N/A,,Scattered Clouds,280,2013-06-12 21:14:00
5:34 PM,82.6,72.9,72,29.79,10.0,Calm,Calm,-,N/A,,Scattered Clouds,0,2013-06-12 21:34:00
5:54 PM,82.6,72.7,72,29.78,10.0,Calm,Calm,-,N/A,,Mostly Cloudy,0,2013-06-12 21:54:00
6:14 PM,82.6,72.9,72,29.76,10.0,Calm,Calm,-,N/A,,Scattered Clouds,0,2013-06-12 22:14:00
6:34 PM,82.0,72.9,74,29.75,10.0,Calm,Calm,-,N/A,,Clear,0,2013-06-12 22:34:00
6:54 PM,81.7,73.2,75,29.75,10.0,Calm,Calm,-,N/A,,Mostly Cloudy,0,2013-06-12 22:54:00
7:14 PM,80.8,73.6,79,29.74,10.0,Calm,Calm,-,N/A,,Scattered Clouds,0,2013-06-12 23:14:00
7:35 PM,79.7,73.4,81,29.74,10.0,NE,4.6,-,N/A,,Clear,40,2013-06-12 23:35:00
7:54 PM,78.8,72.9,82,29.71,10.0,ENE,9.2,-,N/A,,Scattered Clouds,60,2013-06-12 23:54:00
8:14 PM,77.9,72.5,83,29.68,10.0,East,10.4,-,N/A,,Clear,90,2013-06-13 00:14:00
8:34 PM,77.7,72.5,84,29.70,10.0,East,5.8,-,N/A,,Clear,90,2013-06-13 00:34:00
8:54 PM,77.5,72.9,85,29.69,10.0,East,6.9,-,N/A,,Mostly Cloudy,80,2013-06-13 00:54:00
9:11 PM,77.9,72.5,83,29.67,10.0,SE,5.8,-,N/A,,Scattered Clouds,130,2013-06-13 01:11:00
9:34 PM,-9999,-9999,N/A,29.66,10.0,ESE,3.5,-,N/A,Rain,Light Rain,110,2013-06-13 01:34:00
9:54 PM,-9999,-9999,N/A,29.65,5.0,SSE,9.2,-,N/A,Rain,Light Rain,150,2013-06-13 01:54:00
10:09 PM,74.7,72.5,93,29.65,5.0,South,12.7,19.6,N/A,Rain,Heavy Rain,170,2013-06-13 02:09:00
10:34 PM,72.0,69.3,91,29.63,7.0,SSW,11.5,-,N/A,Rain,Light Rain,200,2013-06-13 02:34:00
10:54 PM,71.1,67.6,89,29.65,10.0,SSW,18.4,26.5,N/A,Rain,Light Rain,210,2013-06-13 02:54:00
11:14 PM,69.4,67.3,93,29.69,7.0,SW,11.5,-,N/A,Rain,Rain,230,2013-06-13 03:14:00
11:34 PM,68.2,66.0,93,29.72,7.0,WNW,13.8,24.2,N/A,Rain,Rain,300,2013-06-13 03:34:00
11:54 PM,65.8,63.5,92,29.70,7.0,NW,9.2,17.3,N/A,Rain,Rain,310,2013-06-13 03:54:00